TimeCST,TemperatureF,Dew PointF,Humidity,Sea Level PressureIn,VisibilityMPH,Wind Direction,Wind SpeedMPH,Gust SpeedMPH,PrecipitationIn,Events,Conditions,WindDirDegrees,DateUTC
12:00 AM,66,56,63,29.85,12,ENE,4.6,,,,,60,2013-02-13 06:00:00
12:00 AM,66.2,57.2,73,30.02,-9999.0,ENE,4.6,-,N/A,,Clear,60,2013-02-13 06:00:00
1:00 AM,64.4,55.4,73,30.00,-9999.0,NE,5.8,-,N/A,,Clear,50,2013-02-13 07:00:00
2:00 AM,64.4,57.2,77,29.99,-9999.0,ENE,6.9,-,N/A,,Clear,60,2013-02-13 08:00:00
3:00 AM,62,54,68,29.84,12,NE,3.5,,,,,40,2013-02-13 09:00:00
3:00 AM,62.6,53.6,72,29.98,-9999.0,NE,3.5,-,N/A,,Clear,40,2013-02-13 09:00:00
4:00 AM,62.6,53.6,72,29.98,-9999.0,ENE,4.6,-,N/A,,Clear,60,2013-02-13 10:00:00
5:00 AM,62.6,55.4,77,29.99,6.2,ENE,4.6,-,N/A,,Partly Cloudy,60,2013-02-13 11:00:00
6:00 AM,63,55,69,29.87,12,NNE,6.9,,,,Scattered Clouds,30,2013-02-13 12:00:00
6:00 AM,62.6,55.4,77,30.00,6.2,NNE,6.9,-,N/A,,Partly Cloudy,30,2013-02-13 12:00:00
7:00 AM,68.0,57.2,68,30.02,6.2,NE,5.8,-,N/A,,Partly Cloudy,50,2013-02-13 13:00:00
8:00 AM,75.2,55.4,50,30.03,-9999.0,ESE,12.7,-,N/A,,Clear,110,2013-02-13 14:00:00
9:00 AM,77,54,34,29.85,12,East,13.8,,,,Scattered Clouds,100,2013-02-13 15:00:00
9:00 AM,77.0,53.6,44,30.04,6.2,East,13.8,-,N/A,,Partly Cloudy,100,2013-02-13 15:00:00
10:00 AM,78.8,55.4,44,30.04,6.2,ESE,13.8,-,N/A,,Partly Cloudy,110,2013-02-13 16:00:00
11:00 AM,82.4,55.4,39,30.02,6.2,East,11.5,-,N/A,,Partly Cloudy,90,2013-02-13 17:00:00
12:00 PM,85,53,23,29.81,12,ESE,9.2,,,,Scattered Clouds,110,2013-02-13 18:00:00
12:00 PM,86.0,53.6,33,29.99,6.2,ESE,9.2,-,N/A,,Partly Cloudy,110,2013-02-13 18:00:00
1:00 PM,82.4,53.6,37,29.97,6.2,East,8.1,-,N/A,,Scattered Clouds,100,2013-02-13 19:00:00
1:23 PM,82.4,59.0,45,29.95,6.2,SW,8.1,-,N/A,,Scattered Clouds,230,2013-02-13 19:23:00
2:00 PM,84.2,60.8,45,29.94,6.2,SW,12.7,-,N/A,,Scattered Clouds,230,2013-02-13 20:00:00
3:00 PM,82,63,42,29.77,12,SW,13.8,,,,Partly Cloudy,230,2013-02-13 21:00:00
3:00 PM,82.4,62.6,51,29.92,6.2,SW,13.8,-,N/A,,Scattered Clouds,230,2013-02-13 21:00:00
4:00 PM,78.8,62.6,57,29.93,6.2,SW,13.8,-,N/A,,Scattered Clouds,230,2013-02-13 22:00:00
5:00 PM,77.0,62.6,61,29.94,6.2,WSW,10.4,-,N/A,,Mostly Cloudy,250,2013-02-13 23:00:00
6:00 PM,,,,,12,West,8.1,,,,,260,2013-02-14 00:00:00
6:00 PM,71.6,62.6,73,29.97,6.2,West,8.1,-,N/A,,Mostly Cloudy,260,2013-02-14 00:00:00
6:20 PM,71.6,62.6,73,29.98,6.2,East,4.6,-,N/A,,Mostly Cloudy,80,2013-02-14 00:20:00
6:28 PM,68.0,62.6,83,29.98,6.2,East,4.6,-,N/A,Rain,Rain,80,2013-02-14 00:28:00
7:00 PM,68.0,64.4,88,29.99,6.2,East,3.5,-,N/A,,Mostly Cloudy,80,2013-02-14 01:00:00
8:00 PM,68.0,64.4,88,30.01,6.2,Calm,Calm,-,N/A,,Scattered Clouds,0,2013-02-14 02:00:00
9:00 PM,68,64,83,29.90,9,Calm,Calm,,,,Scattered Clouds,,2013-02-14 03:00:00
9:00 PM,68.0,64.4,88,30.02,6.2,Calm,Calm,-,N/A,,Mostly Cloudy,0,2013-02-14 03:00:00
10:00 PM,68.0,62.6,83,30.05,6.2,ENE,2.3,-,N/A,,Mostly Cloudy,70,2013-02-14 04:00:00
11:00 PM,68.0,62.6,83,30.04,6.2,East,4.6,-,N/A,,Mostly Cloudy,90,2013-02-14 05:00:00